COSMOS 2130

Satellite information

Favourite Embed

Satellite Type and Status

PAYLOADIN ORBIT

Key statistics

Satellite COSMOS 2130 at a glance.

Uptime

12565

Days in orbit

Revolutions

≈ 12.6

Per day

Orbit

LEO

Low Earth Orbit

Inclination

74.0

Latest

Satellite identification and parameters

Extended collection of information and parameters for COSMOS 2130.

Object identification

Identified? True

Debris? False

Object name: COSMOS 2130

International designator: 1991-009F

Object number (NORAD): 21105

Object ID (CCSDS): 21105

Country: COMMONWEALTH OF INDEPENDENT STATES (CIS)

Current information (Y/N): Y

RCS size: MEDIUM

Orbital parameters

Period: 114.543 minutes

Inclination: 74.0272 deg

SMA: 7812.767 km

Apoapsis: 1468.309 km

Periapsis: 1400.956 km

RAAN: 192.246 deg

Eccentricy: 0.0043104

Argument of periapsis: 46.5778 deg

Mean anomaly: 126.9803 deg

Mean motion: 12.57174096 rev/day

Mean motion (dot): 0.00000008 rev/day2

B* drag term: 0.00014103 1/REarth

Two-line elements (TLE)

Creation date: July 8, 2025, 2:27 a.m.

Reference frame: TEME

Reference center: EARTH

Epoch: July 7, 2025, 6:48 p.m. UTC

TLE line 0: 0 COSMOS 2130

TLE line 1: 1 21105U 91009F 25188.78345054 .00000008 00000-0 14103-3 0 9998

TLE line 2: 2 21105 74.0272 192.2460 0043104 46.5778 126.9803 12.57174096578670

Live tracking on map

Real-time ground track for satellite COSMOS 2130.

In-orbit conjunctions

There are no conjunctions computed for COSMOS 2130, at the moment. Check back to stay up to date, as we update our databases every day.

Go to all conjunctions

Associated space launch

Military communications satellites

COSMOS 2130 was lifted into orbit during the mission ‘Kosmos-3M | Strela-1M 353-360’, on board a Kosmos-3M space rocket.

The launch took place on Feb. 12, 1991, 2:44 a.m. from 133/3 (133L).

For more information about the launch, click the button.

Launch to space Kosmos-3M | Strela-1M 353-360
Kosmos-3M | Strela-1M 353-360

Agency: N/A

Status: Launch Successful

Launch date: Feb. 12, 1991, 2:44 a.m. UTC

Rocket: Kosmos-3M

Launch pad: 133/3 (133L)

Location: Plesetsk Cosmodrome, Russian Federation

...

Latest news about this satellite

There are no fresh news available about this satellite. Check back as we update our databases every day.


Newsletter sign-up

Weekly statistics, charts and insights to help you stay on top of the space industry.